GPS BIIF-8 (PRN 03)

Last updated on Wed Jun 24 2026 00:03:27 GMT+0000 (Coordinated Universal Time)

1 40294U 14068A 26172.90896066 -.00000097 00000+0 00000+0 0 9995 2 40294 56.9908 30.7727 0067156 70.7865 289.9877 2.00576516 85300
UTC large
Height (km)
Speed (km/s)
/
Latitude / Longitude
Inclination (degrees)
Orbital Period (minutes)
Azimuth
Elevation
Range (km)
Doppler Factor

Next 0 passes for location: London (51.5072 / 0.1276)

No passes found over London.
GPS BIIF-8 (PRN 03)